AX503 Weather Reports


time (UTC)temp
C
wind
direction
speed
KPH
gust
KPH
rain 1hr
cm
rain 24hr
cm
rain mn
cm
humidity
%
barometer
mb
20260906113104 25 0 0.0 1.6 0.00 0.00 0.00 98 1010.8
20260906111549 25 0 0.0 0.0 0.00 0.00 0.00 98 1010.7
20260906110050 25 0 0.0 0.0 0.00 0.00 0.00 98 1010.6
20260906104556 25 0 0.0 0.0 0.00 0.00 0.00 98 1010.5
20260906103054 25 0 0.0 0.0 0.00 0.00 0.00 98 1010.5
20260906101556 25 0 0.0 0.0 0.00 0.00 0.00 98 1010.4
20260906100050 25 0 0.0 0.0 0.00 0.00 0.00 98 1010.2
20260906094559 25 0 0.0 0.0 0.00 0.00 0.00 98 1010.3
20260906093055 25 0 0.0 0.0 0.00 0.00 0.00 98 1010.1
20260906091551 25 0 0.0 0.0 0.00 0.00 0.00 98 1010.1
20260906090052 25 0 0.0 0.0 0.00 0.00 0.00 98 1010.1
20260906084557 25 0 0.0 0.0 0.00 0.00 0.00 98 1010.2
20260906083055 25 0 0.0 0.0 0.00 0.00 0.00 98 1010.4
20260906081556 25 0 0.0 0.0 0.00 0.00 0.00 98 1010.2
20260906080052 25 0 0.0 0.0 0.00 0.00 0.00 98 1010.3
20260906074600 25 0 0.0 0.0 0.00 0.00 0.00 98 1010.3
20260906073100 25 0 0.0 0.0 0.00 0.00 0.00 98 1010.3
20260906071559 25 0 0.0 0.0 0.00 0.00 0.00 98 1010.3
20260906070053 25 0 0.0 0.0 0.00 0.00 0.00 98 1010.4
20260906064602 26 0 0.0 0.0 0.00 0.00 0.00 98 1010.5
20260906063056 26 0 0.0 0.0 0.00 0.00 0.00 97 1010.4
20260906061556 26 0 0.0 0.0 0.00 0.00 0.00 97 1010.7
20260906060128 26 0 0.0 0.0 0.00 0.00 0.00 97 1010.8
20260906054550 26 0 0.0 0.0 0.00 0.00 0.00 97 1010.9
20260906053043 26 0 0.0 0.0 0.00 0.00 0.00 97 1011.2
20260906051550 26 0 0.0 0.0 0.00 0.00 0.00 97 1011.1
20260906050105 26 0 0.0 0.0 0.00 0.00 0.00 97 1011.3
20260906044557 26 0 0.0 0.0 0.00 0.00 0.00 96 1011.2
20260906043057 26 0 0.0 0.0 0.00 0.00 0.00 96 1011.3
20260906041554 26 0 0.0 0.0 0.00 0.00 0.00 96 1011.2
20260906040052 26 0 0.0 0.0 0.00 0.00 0.00 96 1011.4
20260906034556 26 0 0.0 0.0 0.00 0.00 0.00 96 1011.5
20260906033055 27 0 0.0 0.0 0.00 0.00 0.00 96 1011.7
20260906031613 27 0 0.0 1.6 0.00 0.00 0.00 96 1011.8
20260906030051 27 0 0.0 0.0 0.00 0.00 0.00 95 1011.8
20260906024557 27 0 0.0 4.8 0.00 0.00 0.00 95 1011.5
20260906023108 27 0 0.0 1.6 0.00 0.00 0.00 95 1011.2
20260906021552 27 0 0.0 1.6 0.00 0.00 0.00 94 1011.4
20260906014555 27 0 0.0 1.6 0.00 0.00 0.00 93 1011.4
20260906013054 27 0 0.0 3.2 0.00 0.00 0.00 93 1011.4
20260906011556 27 0 0.0 0.0 0.00 0.00 0.00 92 1011.2
20260906010104 27 0 0.0 0.0 0.00 0.00 0.00 90 1011.2
20260906004558 27 0 0.0 0.0 0.00 0.00 0.00 89 1011.1
20260906003052 28 0 0.0 0.0 0.00 0.00 0.00 87 1011.4
20260906001549 28 0 0.0 0.0 0.00 0.00 0.00 85 1011.1
20260906000108 28 0 0.0 0.0 0.00 0.00 0.00 84 1011.1
20260905234556 29 0 0.0 0.0 0.00 0.00 0.00 83 1011.1
20260905233056 30 0 0.0 0.0 0.00 0.00 0.00 81 1010.9
20260905231550 30 0 0.0 0.0 0.00 0.00 0.00 79 1010.8
20260905230059 31 0 0.0 0.0 0.00 0.00 0.00 78 1010.8
20260905224552 31 0 0.0 0.0 0.00 0.00 0.00 76 1010.7
20260905223049 31 0 0.0 0.0 0.00 0.00 0.00 76 1010.6
20260905221600 32 0 0.0 1.6 0.00 0.00 0.00 71 1010.8
20260905220054 33 0 0.0 6.4 0.00 0.00 0.00 73 1010.9
20260905214606 33 0 0.0 0.0 0.00 0.00 0.00 71 1011.0
20260905213104 33 0 0.0 1.6 0.00 0.00 0.00 70 1011.0
20260905211554 33 0 0.0 1.6 0.00 0.00 0.00 70 1010.8
20260905210104 32 271 0.0 6.4 0.00 0.00 0.00 73 1010.7
20260905204548 32 0 0.0 1.6 0.00 0.00 0.00 70 1010.6
20260905203100 32 0 0.0 1.6 0.00 0.00 0.00 71 1010.3
20260905201552 32 0 0.0 1.6 0.00 0.00 0.00 70 1010.5
20260905200105 33 206 0.0 3.2 0.00 0.00 0.00 68 1010.5
20260905194600 32 257 0.0 4.8 0.00 0.00 0.00 67 1010.9
20260905193054 32 0 0.0 6.4 0.00 0.00 0.00 68 1011.2
20260905191552 32 0 0.0 4.8 0.00 0.00 0.00 70 1011.4
20260905190054 32 0 0.0 1.6 0.00 0.00 0.00 70 1011.5
20260905184603 32 0 0.0 3.2 0.00 0.00 0.00 72 1011.8
20260905183055 32 0 0.0 1.6 0.00 0.00 0.00 73 1012.0
20260905181553 32 72 0.0 1.6 0.00 0.00 0.00 71 1012.2
20260905180111 32 0 0.0 1.6 0.00 0.00 0.00 74 1012.4
20260905174556 31 241 0.0 3.2 0.00 0.00 0.00 74 1012.8
20260905173112 31 0 0.0 3.2 0.00 0.00 0.00 76 1013.0
20260905171555 31 0 0.0 4.8 0.00 0.00 0.00 74 1013.2
20260905170051 31 0 0.0 4.8 0.00 0.00 0.00 77 1013.3
20260905164603 30 0 0.0 3.2 0.00 0.00 0.00 77 1013.4
20260905163055 30 0 0.0 4.8 0.00 0.00 0.00 80 1013.6
20260905161602 29 0 0.0 4.8 0.00 0.00 0.00 83 1013.8
20260905160056 29 0 0.0 4.8 0.00 0.00 0.00 82 1014.1
20260905154602 28 37 0.0 6.4 0.00 0.00 0.00 84 1014.2
20260905153054 28 270 0.0 3.2 0.00 0.00 0.00 88 1014.3
20260905151552 27 0 0.0 1.6 0.00 0.00 0.00 90 1014.5
20260905150057 26 0 0.0 1.6 0.00 0.00 0.00 93 1014.6
20260905144556 26 0 0.0 1.6 0.00 0.00 0.00 95 1014.5
20260905143055 26 0 0.0 1.6 0.00 0.00 0.00 97 1014.6
20260905141550 25 0 0.0 1.6 0.00 0.00 0.00 98 1014.5
20260905140058 25 0 0.0 1.6 0.00 0.00 0.00 99 1014.4
20260905134601 25 0 0.0 0.0 0.00 0.00 0.00 99 1014.6
20260905133052 24 0 0.0 1.6 0.00 0.00 0.00 99 1014.5
20260905131548 24 0 0.0 1.6 0.00 0.00 0.00 99 1014.7
20260905130051 24 0 0.0 1.6 0.00 0.00 0.00 99 1014.6
20260905124555 24 0 0.0 0.0 0.00 0.00 0.00 99 1014.2
20260905123103 24 0 0.0 1.6 0.00 0.00 0.00 99 1014.3
20260905121553 23 0 0.0 0.0 0.00 0.00 0.00 99 1014.3
20260905120100 23 0 0.0 0.0 0.00 0.00 0.00 99 1014.2
20260905114600 23 0 0.0 0.0 0.00 0.00 0.00 98 1013.9